Regional Weather Roundup
Issued by NWS

Home | Current Version | Previous Version | Graphics & Text | Print | Product List | Glossary On
Versions: 1 2 3 4 5 6 7 8 9 10 11 12 13 14 15 16 17 18 19 20 21 22 23 24 25 26 27 28 29 30 31 32 33 34 35 36 37 38 39 40 41 42 43 44 45 46 47 48 49 50
000
ASUS43 KLMK 140110
RWRKY
KENTUCKY REGIONAL WEATHER ROUNDUP
NATIONAL WEATHER SERVICE LOUISVILLE KY
800 PM EST WED DEC 13 2017

NOTE "FAIR" INDICATES FEW OR NO CLOUDS BELOW 12,000 FEET
WITH NO SIGNIFICANT WEATHER AND/OR OBSTRUCTIONS TO VISIBILITY.

KYZ001>023-026-027-061>063-070>075-140200-
WESTERN AND SOUTH CENTRAL KENTUCKY

CITY           SKY/WX    TMP DP  RH WIND       PRES   REMARKS
PADUCAH        CLEAR     49  25  39 SW12      29.71R
HENDERSON      MOCLDY    46  28  49 SW16      29.66R
OWENSBORO      CLOUDY    47  27  45 SW20      29.64R
HOPKINSVILLE   CLEAR     47  24  39 SW18      29.71R
BOWLING GREEN  CLOUDY    46  21  37 SW13      29.70R
GLASGOW        PTCLDY    44  19  37 SW14      29.68S
$$

KYZ024-025-028>034-038-045-046-053-140200-
NORTH CENTRAL KENTUCKY

CITY           SKY/WX    TMP DP  RH WIND       PRES   REMARKS
LOUISVILLE/SDF CLOUDY    49  24  37 SW20G28   29.57R
LOUISVILLE/LOU CLOUDY    48  24  39 SW18G29   29.58R
FORT KNOX      CLOUDY    46  22  39 SW18G26   29.57S
$$

KYZ035>037-039>044-047>052-055>060-089>105-140200-
NORTHEAST KENTUCKY

CITY           SKY/WX    TMP DP  RH WIND       PRES   REMARKS
LEXINGTON      CLOUDY    44  18  35 SW23G36   29.56S
COVINGTON      CLOUDY    43  22  43 SW15G26   29.44F
FRANKFORT      CLOUDY    45  17  32 SW20G29   29.54F
$$

KYZ054-064>069-076>088-106>120-140200-
SOUTHEAST KENTUCKY

CITY           SKY/WX    TMP DP  RH WIND       PRES   REMARKS
JACKSON        CLOUDY    40  11  30 SW9G22    29.61R WCI  34
LONDON         CLOUDY    41  12  30 SW10G18   29.67R
SOMERSET       CLOUDY    43  16  33 W13G24    29.70R
MIDDLESBORO    CLEAR     35  14  42 CALM      29.71S
MONTICELLO     PTCLDY    43  18  36 SW22G30   29.71R
$$





USA.gov is the U.S. government's official web portal to all federal, state and local government web resources and services.